• In Österreich
  • Länderverzeichnis
  • Für 7 Tage
  • Wassertemperatur
  • Satellitenkarten
  • Wetterkarte
  • News
  • Widgets
  • user-avatar
    Anmelden

    Stündliche Wetter Policko

    Heute, 21 September, Freitag

    Zeit Temperatur Niederschläge Wind Luftdruck Luftfeuchtigkeit
    00:00 +22°C° 0 mm 3 m/S 755 mmHg 64%
    01:00 +21°C° 0 mm 3 m/S 755 mmHg 66%
    02:00 +21°C° 0 mm 3 m/S 754 mmHg 67%
    03:00 +21°C° 0 mm 3 m/S 754 mmHg 68%
    04:00 +20°C° 0 mm 3 m/S 754 mmHg 69%
    05:00 +21°C° 0 mm 3 m/S 754 mmHg 69%
    06:00 +21°C° 0 mm 4 m/S 753 mmHg 68%
    07:00 +21°C° 0 mm 4 m/S 753 mmHg 67%
    08:00 +23°C° 0 mm 4 m/S 753 mmHg 59%
    09:00 +26°C° 0 mm 5 m/S 752 mmHg 52%
    10:00 +28°C° 0 mm 6 m/S 752 mmHg 44%
    11:00 +29°C° 0 mm 6 m/S 751 mmHg 40%
    12:00 +30°C° 0 mm 6 m/S 750 mmHg 36%
    13:00 +32°C° 0 mm 7 m/S 750 mmHg 33%
    14:00 +32°C° 0 mm 6 m/S 749 mmHg 34%
    15:00 +32°C° 0 mm 6 m/S 749 mmHg 35%
    16:00 +30°C° 0 mm 6 m/S 749 mmHg 37%
    17:00 +26°C° 0.7 mm 6 m/S 749 mmHg 50%
    18:00 +21°C° 0.7 mm 6 m/S 750 mmHg 63%
    19:00 +16°C° 0.7 mm 7 m/S 751 mmHg 76%
    20:00 +15°C° 0.5 mm 6 m/S 752 mmHg 75%
    21:00 +15°C° 0.5 mm 5 m/S 753 mmHg 74%
    22:00 +14°C° 0.5 mm 4 m/S 754 mmHg 74%
    23:00 +14°C° 0 mm 4 m/S 754 mmHg 71%

    Morgen, 22 September, Samstag

    Zeit Temperatur Niederschläge Wind Luftdruck Luftfeuchtigkeit
    00:00 +13°C° 0 mm 4 m/S 755 mmHg 69%
    01:00 +13°C° 0 mm 4 m/S 755 mmHg 67%
    02:00 +12°C° 0 mm 4 m/S 755 mmHg 66%
    03:00 +12°C° 0 mm 4 m/S 755 mmHg 66%
    04:00 +11°C° 0 mm 4 m/S 755 mmHg 65%
    05:00 +12°C° 0 mm 5 m/S 756 mmHg 65%
    06:00 +12°C° 0 mm 5 m/S 756 mmHg 64%
    07:00 +11°C° 0 mm 6 m/S 756 mmHg 63%
    08:00 +13°C° 0 mm 6 m/S 757 mmHg 60%
    09:00 +14°C° 0 mm 6 m/S 757 mmHg 57%
    10:00 +15°C° 0 mm 6 m/S 757 mmHg 53%
    11:00 +16°C° 0.1 mm 6 m/S 757 mmHg 51%
    12:00 +16°C° 0.1 mm 6 m/S 757 mmHg 49%
    13:00 +17°C° 0.1 mm 7 m/S 757 mmHg 47%
    14:00 +17°C° 0.2 mm 7 m/S 757 mmHg 49%
    15:00 +16°C° 0.2 mm 6 m/S 757 mmHg 51%
    16:00 +16°C° 0.2 mm 6 m/S 757 mmHg 52%
    17:00 +15°C° 0.1 mm 5 m/S 757 mmHg 56%
    18:00 +14°C° 0.1 mm 4 m/S 757 mmHg 60%
    19:00 +13°C° 0.1 mm 4 m/S 758 mmHg 64%
    20:00 +12°C° 0 mm 4 m/S 758 mmHg 65%
    21:00 +12°C° 0 mm 4 m/S 758 mmHg 66%
    22:00 +12°C° 0 mm 4 m/S 758 mmHg 66%
    23:00 +11°C° 0 mm 4 m/S 758 mmHg 67%

    übermorgen, 23 September, Sonntag

    Zeit Temperatur Niederschläge Wind Luftdruck Luftfeuchtigkeit
    00:00 +11°C° 0 mm 4 m/S 759 mmHg 68%
    01:00 +10°C° 0 mm 4 m/S 759 mmHg 68%
    02:00 +10°C° 0 mm 4 m/S 759 mmHg 70%
    03:00 +8°C° 0 mm 4 m/S 759 mmHg 71%
    04:00 +8°C° 0 mm 4 m/S 759 mmHg 72%
    05:00 +8°C° 0 mm 4 m/S 759 mmHg 72%
    06:00 +8°C° 0 mm 4 m/S 759 mmHg 72%
    07:00 +8°C° 0 mm 4 m/S 759 mmHg 72%
    08:00 +11°C° 0 mm 4 m/S 759 mmHg 65%
    09:00 +12°C° 0 mm 5 m/S 759 mmHg 59%
    10:00 +14°C° 0 mm 5 m/S 759 mmHg 53%
    11:00 +15°C° 0 mm 5 m/S 758 mmHg 49%
    12:00 +16°C° 0 mm 5 m/S 758 mmHg 46%
    13:00 +18°C° 0 mm 4 m/S 757 mmHg 43%
    14:00 +17°C° 0.2 mm 3 m/S 757 mmHg 51%
    15:00 +16°C° 0.2 mm 3 m/S 756 mmHg 58%
    16:00 +15°C° 0.2 mm 2 m/S 756 mmHg 66%
    17:00 +14°C° 0.6 mm 2 m/S 755 mmHg 73%
    18:00 +13°C° 0.6 mm 2 m/S 754 mmHg 79%
    19:00 +13°C° 0.6 mm 2 m/S 753 mmHg 85%
    20:00 +12°C° 1.2 mm 3 m/S 751 mmHg 86%
    21:00 +12°C° 1.2 mm 4 m/S 750 mmHg 87%
    22:00 +12°C° 1.2 mm 5 m/S 749 mmHg 88%
    23:00 +13°C° 3.9 mm 4 m/S 747 mmHg 91%

    24 September, Montag

    Zeit Temperatur Niederschläge Wind Luftdruck Luftfeuchtigkeit
    00:00 +14°C° 3.9 mm 4 m/S 745 mmHg 93%
    01:00 +15°C° 3.9 mm 4 m/S 743 mmHg 95%
    02:00 +15°C° 4.1 mm 4 m/S 741 mmHg 95%
    03:00 +17°C° 4.1 mm 4 m/S 739 mmHg 95%
    04:00 +16°C° 4.1 mm 5 m/S 738 mmHg 94%
    05:00 +16°C° 0.4 mm 6 m/S 737 mmHg 90%
    06:00 +15°C° 0.4 mm 7 m/S 737 mmHg 86%
    07:00 +13°C° 0.4 mm 8 m/S 737 mmHg 82%
    08:00 +12°C° 0.7 mm 10 m/S 739 mmHg 82%
    09:00 +10°C° 0.7 mm 12 m/S 742 mmHg 81%
    10:00 +8°C° 0.7 mm 13 m/S 744 mmHg 80%
    11:00 +9°C° 0.5 mm 12 m/S 747 mmHg 77%
    12:00 +9°C° 0.5 mm 11 m/S 750 mmHg 74%
    13:00 +9°C° 0.5 mm 10 m/S 753 mmHg 71%
    14:00 +10°C° 0.3 mm 9 m/S 754 mmHg 68%
    15:00 +10°C° 0.3 mm 9 m/S 756 mmHg 66%
    16:00 +11°C° 0.3 mm 8 m/S 757 mmHg 64%
    17:00 +10°C° 0 mm 7 m/S 758 mmHg 64%
    18:00 +9°C° 0 mm 6 m/S 759 mmHg 64%
    19:00 +8°C° 0 mm 5 m/S 761 mmHg 65%
    20:00 +8°C° 0 mm 5 m/S 762 mmHg 63%
    21:00 +8°C° 0 mm 5 m/S 763 mmHg 61%
    22:00 +8°C° 0 mm 6 m/S 763 mmHg 59%
    23:00 +7°C° 0 mm 5 m/S 764 mmHg 59%

    25 September, Dienstag

    Zeit Temperatur Niederschläge Wind Luftdruck Luftfeuchtigkeit
    00:00 +7°C° 0 mm 5 m/S 765 mmHg 60%
    01:00 +7°C° 0 mm 5 m/S 766 mmHg 60%
    02:00 +7°C° 0 mm 5 m/S 766 mmHg 62%
    03:00 +6°C° 0 mm 5 m/S 767 mmHg 64%
    04:00 +6°C° 0 mm 5 m/S 768 mmHg 65%
    05:00 +6°C° 0 mm 5 m/S 768 mmHg 66%
    06:00 +6°C° 0 mm 5 m/S 768 mmHg 67%
    07:00 +7°C° 0 mm 5 m/S 769 mmHg 68%
    08:00 +8°C° 0 mm 5 m/S 769 mmHg 62%
    09:00 +10°C° 0 mm 6 m/S 769 mmHg 57%
    10:00 +11°C° 0 mm 7 m/S 769 mmHg 51%
    11:00 +12°C° 0 mm 7 m/S 768 mmHg 51%
    12:00 +12°C° 0 mm 7 m/S 768 mmHg 50%
    13:00 +14°C° 0 mm 7 m/S 768 mmHg 49%
    14:00 +12°C° 0 mm 7 m/S 767 mmHg 53%
    15:00 +12°C° 0 mm 7 m/S 767 mmHg 56%
    16:00 +12°C° 0 mm 7 m/S 766 mmHg 60%
    17:00 +11°C° 0.1 mm 8 m/S 766 mmHg 63%
    18:00 +11°C° 0.1 mm 8 m/S 765 mmHg 67%
    19:00 +11°C° 0.1 mm 8 m/S 765 mmHg 70%
    20:00 +11°C° 0.9 mm 8 m/S 765 mmHg 73%
    21:00 +10°C° 0.9 mm 8 m/S 765 mmHg 76%
    22:00 +10°C° 0.9 mm 7 m/S 765 mmHg 79%
    23:00 +10°C° 0.8 mm 6 m/S 765 mmHg 81%

    26 September, Mittwoch

    Zeit Temperatur Niederschläge Wind Luftdruck Luftfeuchtigkeit
    00:00 +9°C° 0.8 mm 5 m/S 765 mmHg 84%
    01:00 +10°C° 0.8 mm 4 m/S 765 mmHg 86%
    02:00 +10°C° 0.1 mm 4 m/S 766 mmHg 87%
    03:00 +9°C° 0.1 mm 3 m/S 766 mmHg 88%
    04:00 +9°C° 0.1 mm 3 m/S 766 mmHg 88%
    05:00 +9°C° 0 mm 3 m/S 767 mmHg 89%
    06:00 +9°C° 0 mm 3 m/S 767 mmHg 89%
    07:00 +9°C° 0 mm 2 m/S 768 mmHg 89%
    08:00 +11°C° 0 mm 3 m/S 768 mmHg 82%
    09:00 +12°C° 0 mm 3 m/S 768 mmHg 75%
    10:00 +14°C° 0 mm 3 m/S 768 mmHg 69%
    11:00 +14°C° 0.1 mm 3 m/S 768 mmHg 68%
    12:00 +14°C° 0.1 mm 4 m/S 768 mmHg 68%
    13:00 +15°C° 0.1 mm 4 m/S 768 mmHg 67%
    14:00 +15°C° 0.1 mm 4 m/S 768 mmHg 68%
    15:00 +15°C° 0.1 mm 4 m/S 768 mmHg 69%
    16:00 +16°C° 0.1 mm 3 m/S 767 mmHg 70%
    17:00 +14°C° 0 mm 3 m/S 767 mmHg 74%
    18:00 +14°C° 0 mm 2 m/S 768 mmHg 78%
    19:00 +13°C° 0 mm 2 m/S 768 mmHg 83%
    20:00 +12°C° 0 mm 2 m/S 768 mmHg 85%
    21:00 +10°C° 0 mm 2 m/S 768 mmHg 86%
    22:00 +10°C° 0 mm 2 m/S 768 mmHg 88%
    23:00 +9°C° 0 mm 2 m/S 768 mmHg 89%
    Mehr zeigen